Regional Weather Roundup
Issued by NWS Sterling, VA

Home | Current Version | Previous Version | Text Only | Print | Product List | Glossary On
Versions: 1 2 3 4 5 6 7 8 9 10 11 12 13 14 15 16 17 18 19 20 21 22 23 24 25 26 27 28 29 30 31 32 33 34 35 36 37 38 39 40 41 42 43 44 45 46 47 48 49 50
000
ASUS41 KLWX 271510
RWRLWX

REGIONAL WEATHER ROUNDUP
NATIONAL WEATHER SERVICE BALTIMORE MD/WASHINGTON DC
1000 AM EST TUE JAN 27 2015

Note: "FAIR" indicates few or no clouds below 12,000 feet
with no significant weather and/or obstructions to visibility.
 TC=TEMPERATURE CELSIUS

 * =Non NWS site. Station does not report precipitation (e.g. rain,
    snow, etc.), thunder, or fog.

DCZ001-MDZ009-015-VAZ040>042-051-053>054-271600-
WASHINGTON METRO

CITY           SKY/WX    TMP DP  RH WIND       PRES   REMARKS
WASHINGTON NAT CLOUDY    32  21  64 N12       29.84R WCI  23
DULLES         PTSUNNY   28  20  71 NW15      29.82S WCI  16
ANDREWS AFB    CLOUDY    29  23  76 NW13      29.80R WCI  19
FT BELVOIR     CLOUDY    30  21  69 NW13G20   29.84S WCI  20
QUANTICO       PTSUNNY   31  22  69 N16G25    29.85R WCI  20
COLLEGE PARK*  CLOUDY    32  23  69 NW8       29.82R WCI  25
LEESBURG*      CLOUDY    30  27  86 NW15G25   29.83S WCI  19
GAITHERSBURG*  PTSUNNY   27  19  74 NW10G17   29.84R WCI  17

$$

MDZ006>007-011-014-271600-
BALTIMORE METRO

CITY           SKY/WX    TMP DP  RH WIND       PRES   REMARKS
BWI AIRPORT    CLOUDY    31  22  69 N13G20    29.80R WCI  21
MD SCIENCE CTR   N/A     30  21  69 MISG      29.81R
MARTIN STATE   PTSUNNY   32  25  74 NW8       29.82R WCI  25
ANNAPOLIS      PTSUNNY   31  23  72 NW15      29.80R WCI  20
FORT MEADE*    CLOUDY    32  23  69 NW7       29.83R

$$

MDZ012-015-019>023-271600-
MARYLAND EASTERN SHORE

CITY           SKY/WX    TMP DP  RH WIND       PRES   REMARKS
OCEAN CITY     CLOUDY    30  24  78 N15G21    29.72F WCI  19
SALISBURY      CLOUDY    33  24  69 NW14      29.75R WCI  23
BAY BRIDGE AP*   N/A     32  23  69 NW14G20   29.81R WCI  22
CAMBRIDGE*     PTSUNNY   34  28  80 N12G21    29.77S WCI  25
EASTON*        CLOUDY    32  28  86 N12G21    29.82R WCI  23

$$

MDZ017>025-271600-
SOUTHERN MARYLAND

CITY           SKY/WX    TMP DP  RH WIND       PRES   REMARKS
PATUXENT RIVER CLOUDY    31  24  75 NW17      29.79R WCI  19
ST INIGOES     CLOUDY    32  22  66 NW9       29.79R WCI  24
LEONARDTOWN*   CLOUDY    32  25  74 NW3       29.81R

$$

MDZ003>005-271600-
NORTH CENTRAL MARYLAND

CITY           SKY/WX    TMP DP  RH WIND       PRES   REMARKS
FREDERICK*     CLOUDY    32  19  59 E9        29.85S WCI  24
HAGERSTOWN APT CLOUDY    27  18  69 NW13      29.82R WCI  16
WESTMINSTER*   PTSUNNY   27  21  80 NW6       29.78R

$$

MDZ501>502-271600-
WESTERN MARYLAND

CITY           SKY/WX    TMP DP  RH WIND       PRES   REMARKS
OAKLAND*       CLOUDY    14 N/A N/A W3        29.76S FOG
CUMBERLAND*    PTSUNNY   28  18  64 CALM      29.92R

$$

VAZ025>031-271600-
SHENANDOAH VALLEY

CITY           SKY/WX    TMP DP  RH WIND       PRES   REMARKS
WINCHESTER*    CLOUDY    30  19  64 NW12      29.84S WCI  21
FRONT ROYAL*   CLOUDY    28  23  80 NW3       29.84R
LURAY*         LGT SNOW  30  27  86 N3        29.84R
NEW MARKET*    CLOUDY    26  17  70 CALM      29.85R
STAUNTON*      CLOUDY    28  20  71 N9        29.84R WCI  19
WAYNESBORO*    PTSUNNY   25  17  69 NW10      29.80S WCI  15

$$

WVZ021-048>050-054>055-271600-
EASTERN WEST VIRGINIA PANHANDLE

CITY           SKY/WX    TMP DP  RH WIND       PRES   REMARKS
MARTINSBURG    CLOUDY    29  19  66 NW15G22   29.85R WCI  18
PETERSBURG*    CLOUDY    25  17  72 CALM      29.89S

$$

VAZ036>039-050-271600-
CENTRAL FOOTHILLS

CITY           SKY/WX    TMP DP  RH WIND       PRES   REMARKS
CHARLOTTESVILL CLOUDY    32  20  61 NW6       29.81R
CULPEPER*      PTSUNNY   32  23  69 NW10G18   29.84R WCI  24
ORANGE*        FLURRIES  32  28  86 CALM      29.83S
GORDONSVILLE*  CLOUDY    30  27  90 CALM      29.82R FOG
WARRENTON*     CLOUDY    32  28  83 N12       29.83R WCI  23

$$

VAZ055>057-271600-
NORTH AND CENTRAL PIEDMONT

CITY           SKY/WX    TMP DP  RH WIND       PRES   REMARKS
FREDERICKSBRG* CLOUDY    32  26  77 N10G16    29.83S WCI  24
STAFFORD*      CLOUDY    30  26  84 CALM      29.87S

$$

NCZ024-NYZ072-PAZ021-071-VAZ022-071-271600-
OTHER REGIONAL OBSERVATIONS

CITY           SKY/WX    TMP DP  RH WIND       PRES   REMARKS
NEW YORK CITY  CLOUDY    23  16  74 NW6       29.70F HAZE
PHILADELPHIA   FLURRIES  27  21  78 N14       29.77R WCI  16
PITTSBURGH     LGT SNOW  20  16  84 N10       29.92S WCI   9
ROANOKE        MOSUNNY   30   8  39 W12       29.86R WCI  20
RICHMOND       CLOUDY    32  25  75 N17       29.82R WCI  21
RALEIGH        PTSUNNY   34  19  54 VRB5      29.83R

$$

ANZ530>537-271600-
MARINE OBSERVATIONS

STATION/POSITION TIME  TEMP    WIND        PRES
                       AIR SEA DIR/SP/G
                 (UTC) (F)     (DEG/KT/KT) (MB)
THOMAS PT LIGHT  1500   30 37  330/ 14/ 16 1010.1R
BALT KEY BRIDGE  1500   30     330/ 12/ 14 1009.1R
COVE POINT       1500   29     350/ 20/ 22 1008.5R
LEWISETTA        1500   31 37  360/ 12/ 16 1008.7R
SOLOMONS ISLAND  1500      38                N/A
PINEY POINT      1500          350/ 17/ 20   N/A

$$



USA.gov is the U.S. government's official web portal to all federal, state and local government web resources and services.